DW7281 Weather Reports


Display with metric or nautical units.
time (UTC)temp
F
wind
direction
speed
MPH
gust
MPH
rain 1hr
in
rain 24hr
in
rain mn
in
humidity
%
barometer
mb
20260503004604 65 34 5.0 17.0 0.00 0.08 0.00 80 1025.6
20260503003048 64 51 4.0 17.0 0.00 0.08 0.00 80 1025.7
20260503001557 64 26 6.0 19.0 0.00 0.08 0.00 80 1025.8
20260503000047 64 56 5.0 17.0 0.00 0.08 0.00 80 1025.8
20260502234547 64 28 5.0 15.0 0.00 0.07 0.00 79 1025.8
20260502233049 62 32 6.0 15.0 0.00 0.07 0.00 81 1025.8
20260502231549 63 73 3.0 16.0 0.00 0.07 0.00 81 1025.8
20260502230050 61 0 5.0 13.0 0.00 0.07 0.00 81 1025.9
20260502224548 61 0 5.0 13.0 0.00 0.07 0.00 81 1025.9
20260502223047 61 38 5.0 13.0 0.00 0.07 0.00 81 1025.7
20260502221544 60 57 3.0 12.0 0.00 0.07 0.00 82 1025.5
20260502220053 60 27 6.0 10.0 0.00 0.07 0.00 81 1025.5
20260502214550 58 30 4.0 13.0 0.00 0.07 0.00 82 1025.3
20260502213047 58 14 3.0 12.0 0.00 0.07 0.00 83 1024.9
20260502211544 57 30 3.0 10.0 0.00 0.07 0.00 84 1024.8
20260502204552 56 36 3.0 8.0 0.00 0.09 0.00 87 1024.6
20260502203051 55 15 2.0 8.0 0.00 0.09 0.00 87 1024.6
20260502201552 55 32 3.0 10.0 0.00 0.09 0.00 87 1024.4
20260502200050 56 36 2.0 9.0 0.00 0.09 0.00 87 1024.3
20260502194543 56 351 3.0 7.0 0.00 0.09 0.00 88 1024.3
20260502193049 56 0 1.0 9.0 0.00 0.09 0.00 88 1024.2
20260502191557 56 28 2.0 10.0 0.00 0.09 0.00 89 1024.3
20260502190107 56 35 2.0 10.0 0.00 0.09 0.00 89 1024.2
20260502184600 56 0 0.0 8.0 0.00 0.09 0.00 88 1024.1
20260502183104 56 38 1.0 7.0 0.00 0.09 0.00 88 1024.3
20260502181547 57 30 2.0 11.0 0.00 0.09 0.00 87 1024.2
20260502163055 57 0 2.0 12.0 0.00 0.11 0.00 89 1024.4
20260502161549 57 0 3.0 13.0 0.00 0.11 0.00 89 1024.5
20260502151545 58 31 5.0 10.0 0.00 0.11 0.00 90 1024.8
20260502123051 59 0 3.0 13.0 0.00 0.12 0.11 92 1025.8
20260502121552 59 43 2.0 13.0 0.00 0.12 0.11 92 1025.8
20260502114553 59 0 2.0 14.0 0.00 0.12 0.11 92 1026.0
20260502113050 60 42 4.0 13.0 0.02 0.12 0.11 91 1025.9
20260502111559 60 57 2.0 9.0 0.03 0.12 0.11 91 1025.9
20260502110053 60 0 2.0 10.0 0.05 0.11 0.11 91 1025.8
20260502104556 60 0 0.0 7.0 0.05 0.11 0.11 91 1025.8
20260502103048 59 0 1.0 10.0 0.04 0.10 0.09 91 1025.7
20260502101551 60 0 3.0 12.0 0.03 0.08 0.07 91 1025.6
20260502070059 64 40 2.0 11.0 0.00 0.04 0.03 82 1024.7
20260502064548 64 52 3.0 12.0 0.00 0.04 0.03 82 1024.2
20260502063046 65 33 5.0 14.0 0.00 0.04 0.03 80 1024.0
20260502061549 65 55 4.0 13.0 0.00 0.04 0.03 80 1024.0
20260502060048 65 22 8.0 15.0 0.00 0.04 0.03 80 1023.9
20260502054552 67 79 6.0 14.0 0.00 0.04 0.03 76 1023.6
20260502053102 69 59 5.0 12.0 0.00 0.04 0.03 72 1023.4
20260502051603 70 5 4.0 12.0 0.00 0.04 0.03 69 1023.5
20260502050049 70 360 3.0 11.0 0.00 0.04 0.03 69 1023.6
20260502044550 69 0 2.0 14.0 0.00 0.04 0.03 70 1023.6
20260502043054 71 36 7.0 18.0 0.00 0.04 0.03 67 1023.5
20260502041603 71 26 5.0 14.0 0.00 0.04 0.03 66 1023.9
20260502040049 71 0 2.0 13.0 0.00 0.04 0.03 68 1023.9
20260502034546 71 27 7.0 16.0 0.00 0.04 0.03 66 1024.2
20260502033104 69 44 7.0 14.0 0.00 0.04 0.03 70 1024.1
20260502031546 70 55 5.0 15.0 0.00 0.04 0.03 69 1024.1
20260502030046 70 39 5.0 12.0 0.00 0.04 0.03 70 1024.4
20260502024545 70 13 5.0 13.0 0.00 0.04 0.03 71 1024.6
20260502023053 70 309 4.0 14.0 0.00 0.04 0.03 72 1024.9
20260502021548 67 34 5.0 14.0 0.00 0.04 0.03 76 1025.1
20260502020054 68 345 4.0 11.0 0.00 0.04 0.03 76 1025.2
20260502014545 67 38 6.0 17.0 0.00 0.04 0.03 76 1025.3
20260502013044 68 15 7.0 18.0 0.00 0.04 0.03 75 1025.6
20260502011544 68 347 8.0 18.0 0.00 0.04 0.03 75 1025.8
20260502010056 65 61 6.0 16.0 0.00 0.04 0.03 80 1026.0